Westerly, RI

7:08 PM EST on February 20, 2018 (GMT -0500)
Westerly State

Weather History for KWST - November, 2011

Change the Weather History Date:

Saturday, November 5, 2011

  Actual Average (KGON) Record (KGON)
Temperature  
Mean Temperature 41 °F -  
Max Temperature 52 °F 56 °F 70 °F (1961)
Min Temperature 30 °F 39 °F 26 °F (2006)
Degree Days  
Heating Degree Days 24    
Moisture  
Dew Point 25 °F    
Average Humidity 59    
Maximum Humidity 88    
Minimum Humidity 27    
Precipitation  
Precipitation 0.00 in - - ()
Sea Level Pressure  
Sea Level Pressure 30.40 in    
Wind  
Wind Speed 6 mph (North)    
Max Wind Speed 9 mph    
Max Gust Speed 18 mph    
Visibility 10 miles    
Events      
Averages and records for this station are not official NWS values.
T = Trace of Precipitation, MM = Missing Value Source: NWS Daily Summary

Daily Weather History Graph

Daily Weather History Graph

Search for Another Location

Airport or City:

Trip Planner

Search our weather history database for the weather conditions in past years. The results will help you decide how hot, cold, wet, or windy it might be!

Date:

Astronomy

Nov. 05, 2011 Rise Set
Actual Time 7:23 AM EDT 5:37 PM EDT
Civil Twilight 6:54 AM EDT 6:06 PM EDT
Nautical Twilight 6:21 AM EDT 6:39 PM EDT
Astronomical Twilight 5:48 AM EDT 7:11 PM EDT
Moon 2:57 PM EDT (11/5) 2:27 AM EDT (11/5)
Length of Visible Light 11h 12m
Length of Day
10h 14m
Waxing Gibbous, 78% of the Moon is Illuminated
Nov 5
Waxing Gibbous
Nov 10
Full
Nov 18
Last Quarter
Nov 25
New
Dec 2
First Quarter

Hourly Weather History & Observations

Time (EDT) Temp. Windchill Dew Point Humidity Pressure Visibility Wind Dir Wind Speed Gust Speed Precip Events Conditions
12:53 AM 37.0 °F 30.4 °F 24.1 °F 59% 30.26 in 10.0 mi North 9.2 mph - N/A   Clear
1:53 AM 35.1 °F 29.3 °F 24.1 °F 64% 30.27 in 10.0 mi North 6.9 mph - N/A   Clear
2:53 AM 34.0 °F 28.0 °F 23.0 °F 64% 30.28 in 10.0 mi North 6.9 mph - N/A   Clear
3:53 AM 33.1 °F 27.7 °F 23.0 °F 66% 30.29 in 10.0 mi North 5.8 mph - N/A   Clear
4:53 AM 33.1 °F 26.1 °F 23.0 °F 66% 30.30 in 10.0 mi North 8.1 mph - N/A   Clear
5:53 AM 32.0 °F 26.4 °F 23.0 °F 69% 30.32 in 10.0 mi North 5.8 mph - N/A   Clear
6:53 AM 32.0 °F 24.2 °F 23.0 °F 69% 30.34 in 10.0 mi North 9.2 mph - N/A   Clear
8:53 AM 37.0 °F 30.4 °F 23.0 °F 57% 30.41 in 10.0 mi North 9.2 mph - N/A   Clear
9:53 AM 42.1 °F 36.6 °F 24.1 °F 49% 30.43 in 10.0 mi North 9.2 mph - N/A   Clear
10:53 AM 45.0 °F 40.1 °F 24.1 °F 44% 30.44 in 10.0 mi North 9.2 mph - N/A   Clear
11:53 AM 46.9 °F - 25.0 °F 42% 30.44 in 10.0 mi NE 6.9 mph - N/A   Clear
12:53 PM 48.9 °F - 25.0 °F 39% 30.43 in 10.0 mi North 8.1 mph 18.4 mph N/A   Clear
1:53 PM 50.0 °F - 23.0 °F 35% 30.43 in 10.0 mi Variable 4.6 mph - N/A   Clear
2:53 PM 52.0 °F - 21.0 °F 30% 30.43 in 10.0 mi North 6.9 mph - N/A   Clear
3:53 PM 52.0 °F - 19.0 °F 27% 30.44 in 10.0 mi NNE 5.8 mph - N/A   Clear
4:53 PM 48.9 °F - 26.1 °F 41% 30.45 in 10.0 mi SW 3.5 mph - N/A   Clear
5:53 PM 46.0 °F - 28.0 °F 50% 30.45 in 10.0 mi Calm Calm - N/A   Clear
6:53 PM 39.0 °F - 30.0 °F 70% 30.46 in 10.0 mi Calm Calm - N/A   Clear
7:53 PM 36.0 °F - 28.0 °F 73% 30.47 in 10.0 mi Calm Calm - N/A   Clear
8:53 PM 33.1 °F - 28.0 °F 82% 30.47 in 10.0 mi Calm Calm - N/A   Clear
9:53 PM 30.9 °F - 27.0 °F 85% 30.49 in 10.0 mi Calm Calm - N/A   Clear
10:53 PM 30.0 °F - 27.0 °F 88% 30.49 in 10.0 mi Calm Calm - N/A   Clear
11:53 PM 30.0 °F - 27.0 °F 88% 30.50 in 9.0 mi Calm Calm - N/A   Clear